FW5912 Weather Reports


Display with metric or nautical units.
time (UTC)temp
F
wind
direction
speed
MPH
gust
MPH
rain 1hr
in
rain 24hr
in
rain mn
in
humidity
%
barometer
mb
20260505021552 74 190 13.0 19.0 0.00 0.00 0.00 77 1013.2
20260505020055 74 143 12.0 19.0 0.00 0.00 0.00 78 1013.0
20260505014553 74 144 14.0 19.0 0.00 0.00 0.00 77 1013.0
20260505013121 74 185 10.0 19.0 0.00 0.00 0.00 77 1013.1
20260505011613 74 153 9.0 18.0 0.00 0.00 0.00 76 1013.0
20260505010110 74 147 11.0 19.0 0.00 0.00 0.00 76 1012.9
20260505004558 74 162 12.0 19.0 0.00 0.00 0.00 75 1012.7
20260505003056 74 150 12.0 17.0 0.00 0.00 0.00 75 1012.8
20260505001555 75 148 10.0 17.0 0.00 0.00 0.00 75 1013.0
20260505000106 75 213 12.0 19.0 0.00 0.00 0.00 74 1013.1
20260504234552 75 153 10.0 15.0 0.00 0.00 0.00 74 1013.2
20260504233104 76 138 10.0 16.0 0.00 0.00 0.00 73 1013.3
20260504231557 75 163 10.0 16.0 0.00 0.00 0.00 72 1013.7
20260504230100 75 132 9.0 15.0 0.00 0.00 0.00 72 1013.8
20260504224555 76 148 10.0 13.0 0.00 0.00 0.00 71 1013.8
20260504223102 76 153 10.0 14.0 0.00 0.00 0.00 70 1014.0
20260504221555 77 149 9.0 13.0 0.00 0.00 0.00 70 1014.2
20260504220057 77 185 8.0 14.0 0.00 0.00 0.00 67 1014.3
20260504214614 77 182 7.0 16.0 0.00 0.00 0.00 67 1014.6
20260504213106 78 185 7.0 13.0 0.00 0.00 0.00 66 1014.7
20260504211555 78 109 8.0 15.0 0.00 0.00 0.00 67 1015.0
20260504204555 77 151 9.0 14.0 0.00 0.00 0.00 67 1015.0
20260504203103 78 146 8.0 12.0 0.00 0.00 0.00 66 1015.3
20260504201616 77 142 8.0 14.0 0.00 0.00 0.00 67 1015.4
20260504200057 77 154 8.0 14.0 0.00 0.00 0.00 66 1015.6
20260504194555 78 149 7.0 15.0 0.00 0.00 0.00 66 1016.0
20260504193113 78 126 9.0 15.0 0.00 0.00 0.00 66 1015.8
20260504191601 78 143 7.0 14.0 0.00 0.00 0.00 65 1016.1
20260504190115 77 188 9.0 15.0 0.00 0.00 0.00 66 1016.1
20260504184626 78 145 8.0 14.0 0.00 0.00 0.00 64 1016.2
20260504183112 78 151 8.0 15.0 0.00 0.00 0.00 66 1016.4
20260504181557 77 190 7.0 15.0 0.00 0.00 0.00 66 1016.5
20260504180055 77 142 10.0 16.0 0.00 0.00 0.00 66 1016.6
20260504174555 77 158 8.0 16.0 0.00 0.00 0.00 64 1016.8
20260504173056 77 192 8.0 14.0 0.00 0.00 0.00 65 1017.1
20260504171602 77 204 9.0 15.0 0.00 0.00 0.00 66 1017.1
20260504160105 76 169 10.0 15.0 0.00 0.00 0.00 65 1017.8
20260504140107 74 137 10.0 14.0 0.00 0.00 0.00 68 1017.6
20260504120108 71 188 10.0 15.0 0.00 0.00 0.00 68 1017.4
20260504110104 70 126 9.0 14.0 0.00 0.00 0.00 62 1017.2
20260504100105 71 159 7.0 15.0 0.00 0.00 0.00 58 1017.7
20260504090123 71 131 10.0 17.0 0.00 0.00 0.00 57 1017.6
20260504081552 71 145 8.0 15.0 0.00 0.00 0.00 57 1018.0
20260504060106 71 120 12.0 19.0 0.00 0.00 0.00 55 1019.6
20260504050107 71 105 9.0 14.0 0.00 0.00 0.00 55 1020.1
20260504044554 71 126 9.0 14.0 0.00 0.00 0.00 54 1020.3
20260504043057 71 159 8.0 15.0 0.00 0.00 0.00 54 1020.2
20260504041556 71 122 9.0 15.0 0.00 0.00 0.00 53 1019.9
20260504034555 71 123 8.0 13.0 0.00 0.00 0.00 54 1020.1
20260504033106 71 113 6.0 11.0 0.00 0.00 0.00 53 1020.1
20260504031602 71 124 7.0 13.0 0.00 0.00 0.00 53 1020.0
20260504030056 71 123 7.0 12.0 0.00 0.00 0.00 52 1020.1
20260504024600 71 134 8.0 12.0 0.00 0.00 0.00 53 1020.1
20260504023054 71 126 7.0 12.0 0.00 0.00 0.00 51 1020.1